This demonstration page uses our WeatherBlox Daily Observations layout. Learn more.

Left ArrowRight Arrow

36.19886, -115.1175

Hourly Observations for February 23, 2017

Temp ( °F °C ) Dew Point ( °F °C ) Humidity (%) Winds ( mph kmh ) Pressure ( in mb ) Visibility ( mi km ) Precip ( " mm )
12:53 am 00:53 Clear 47 8.3 24 -4.4 41 41 WNW 10 17 29.90 1013 10 16 0.00 0.00
1:53 am 01:53 Clear 47 8.3 16 -8.9 29 29 NW 15 24 29.89 1012 10 16 0.00 0.00
2:53 am 02:53 Cloudy 46 7.8 19 -7.2 34 34 NNW 8 13 29.90 1013 10 16 0.00 0.00
3:53 am 03:53 Mostly Cloudy 46 7.8 13 -10.6 26 26 NNW 15 24 29.90 1013 10 16 0.00 0.00
4:53 am 04:53 Clear 44 6.7 15 -9.4 31 31 NNW 15 24 29.92 1013 10 16 0.00 0.00
5:53 am 05:53 Clear 42 5.6 16 -8.9 35 35 NNW 12 19 29.96 1015 10 16 0.00 0.00
6:53 am 06:53 Sunny 42 5.6 17 -8.3 36 36 N 15 24 29.98 1015 10 16 0.00 0.00
7:53 am 07:53 Sunny 45 7.2 15 -9.4 30 30 N 14 22 30.00 1016 10 16 0.00 0.00
8:53 am 08:53 Sunny 48 8.9 12 -11.1 23 23 N 16 26 30.01 1016 10 16 0.00 0.00
9:53 am 09:53 Sunny 49 9.4 10 -12.2 21 21 NNW 18 30 30.01 1016 10 16 0.00 0.00
10:53 am 10:53 Sunny 50 10 9 -12.8 19 19 N 17 28 30.01 1016 10 16 0.00 0.00
11:53 am 11:53 Sunny 52 11.1 7 -13.9 16 16 NW 17 28 29.98 1015 10 16 0.00 0.00
12:53 pm 12:53 Sunny 53 11.7 7 -13.9 15 15 N 14 22 29.96 1015 10 16 0.00 0.00
1:53 pm 13:53 Partly Cloudy 54 12.2 6 -14.4 14 14 NNW 13 20 29.94 1014 10 16 0.00 0.00
2:53 pm 14:53 Sunny 54 12.2 7 -13.9 15 15 N 14 22 29.93 1013 10 16 0.00 0.00
3:53 pm 15:53 Sunny 52 11.1 4 -15.6 14 14 NNW 16 26 29.94 1014 10 16 0.00 0.00
4:53 pm 16:53 Sunny 52 11.1 6 -14.4 15 15 NNW 21 33 29.95 1014 10 16 0.00 0.00
5:53 pm 17:53 Clear 50 10 6 -14.4 17 17 NW 16 26 29.98 1015 10 16 0.00 0.00
6:53 pm 18:53 Clear 49 9.4 7 -13.9 18 18 NNW 14 22 29.99 1016 10 16 0.00 0.00
7:53 pm 19:53 Clear 49 9.4 6 -14.4 17 17 NW 15 24 30.00 1016 10 16 0.00 0.00
8:53 pm 20:53 Clear 48 8.9 7 -13.9 19 19 NNW 14 22 30.01 1016 10 16 0.00 0.00
9:53 pm 21:53 Clear 47 8.3 9 -12.8 21 21 NW 16 26 30.03 1017 10 16 0.00 0.00
10:53 pm 22:53 Clear 45 7.2 8 -13.3 22 22 NW 12 19 30.05 1018 10 16 0.00 0.00
11:53 pm 23:53 Clear 43 6.1 11 -11.7 27 27 N 10 17 30.07 1018 10 16 0.00 0.00

Powered by AerisWeather